Location: Newark
(34.6283°N, 36.0776°E)
Time: 11:02:27
(UTC+00:00)

Altair - Visible Passes

Search period start: 19 September 2019 00:00
Search period end: 29 September 2019 00:00
Orbit: 1501 x 1683 km, 47.2° (Epoch: 19 September)

Date Brightness Start Highest point End Pass type
(mag) Time Alt. Az. Time Alt. Az. Time Alt. Az.
19 Sep 8.6 02:11:53 17° WSW 02:12:19 17° WSW 02:17:52 10° SSW visible
19 Sep 7.9 17:14:52 10° WSW 17:24:57 67° NNW 17:35:04 10° NE visible
19 Sep 8.5 19:21:59 10° WNW 19:31:25 41° N 19:33:22 38° NNE visible
19 Sep 9.3 21:28:34 10° NW 21:31:23 21° NW 21:31:23 21° NW visible
19 Sep 9.1 23:51:35 17° SE 23:51:35 17° SE 23:53:17 10° SE visible
20 Sep 8.7 01:49:44 18° SW 01:49:44 18° SW 01:53:30 10° SSW visible
20 Sep 7.9 16:49:34 10° WSW 16:59:41 71° NNW 17:09:51 10° NE visible
20 Sep 8.5 18:56:35 10° WNW 19:06:03 41° N 19:09:18 33° NNE visible
20 Sep 9.1 21:03:17 10° NW 21:07:18 26° NW 21:07:18 26° NW visible
21 Sep 9.0 01:27:24 14° SSW 01:27:24 14° SSW 01:29:01 10° S visible
21 Sep 7.9 16:24:18 10° WSW 16:34:26 75° NNW 16:44:38 10° NE visible
21 Sep 8.5 18:31:10 10° WNW 18:40:41 42° N 18:45:13 29° NE visible
21 Sep 8.9 20:38:00 10° NW 20:43:12 31° NW 20:43:12 31° NW visible
22 Sep 7.8 15:59:04 10° WSW 16:09:11 80° NW 16:19:25 10° NE visible
22 Sep 8.4 18:05:46 10° W 18:15:19 43° NNW 18:21:06 24° NE visible
22 Sep 8.7 20:12:42 10° WNW 20:19:06 36° NNW 20:19:06 36° NNW visible
23 Sep 8.4 17:40:22 10° W 17:49:57 44° NNW 17:56:59 19° NE visible
23 Sep 8.5 19:47:24 10° WNW 19:54:59 40° NNW 19:54:59 40° NNW visible
23 Sep 9.7 21:52:49 10° NW 21:52:58 11° NW 21:52:58 11° NW visible
24 Sep 8.4 17:14:58 10° W 17:24:36 45° NNW 17:32:53 15° NE visible
24 Sep 8.4 19:22:05 10° WNW 19:30:52 42° N 19:30:52 42° N visible
24 Sep 9.5 21:27:35 10° NW 21:28:52 15° NW 21:28:52 15° NW visible
25 Sep 8.4 16:49:35 10° W 16:59:15 47° NNW 17:08:45 11° NE visible
25 Sep 8.3 18:56:45 10° WNW 19:06:16 42° N 19:06:45 42° NNE visible
25 Sep 9.3 21:02:20 10° NW 21:04:45 20° NW 21:04:45 20° NW visible
26 Sep 8.4 16:24:12 10° W 16:33:55 49° NNW 16:43:41 10° NE visible
26 Sep 8.3 18:31:25 10° WNW 18:40:53 41° N 18:42:39 39° NNE visible
26 Sep 9.1 20:37:06 10° NW 20:40:38 25° NW 20:40:38 25° NW visible
27 Sep 8.3 15:58:50 10° W 16:08:35 51° NNW 16:18:25 10° NE visible
27 Sep 8.4 18:06:04 10° WNW 18:15:31 41° N 18:18:33 34° NE visible
27 Sep 8.9 20:11:53 10° NW 20:16:33 31° NW 20:16:33 31° NW visible
28 Sep 8.3 15:33:28 10° W 15:43:15 53° NNW 15:53:10 10° NE visible
28 Sep 8.4 17:40:43 10° WNW 17:50:09 40° N 17:54:28 29° NE visible
28 Sep 8.6 19:46:38 10° NW 19:52:27 38° NW 19:52:27 38° NW visible
